Weather in Morjim

India     15°37′38″N   73°44′13″E
temp.,
°C
wind,
m/s
gust,
m/s
humid.,
%
clouds,
%
prec.,
mm/h
press.,
hPa
HPBL,
m
24 june, thu
thu2423:30+26wnw2385100 1.4 101081
02:30+25wnw128970 1.6 100964
05:30+24w118971 4.6 100947
08:30+27wsw1275100 0.5 1010487
11:30+29w3470100 2.9 1011956
14:30+28w567497 4.9 1009934
17:30+27wnw4780100 10.5 1009770
20:30+26wnw478491 4.6 1010277
25 june, fri
fri2523:30+25wnw2490100 9.2 1011148
02:30+24nw1391100 6.0 1009118
05:30+25nw239198 8.3 1008125
08:30+27wnw467966 1.7 1009770
11:30+29wnw577399 4.6 1009970
14:30+26wnw478392 3.1 1008544
17:30+25nw3785100 5.7 1008339
20:30+25nw128793 0.3 100979
26 june, sat
sat2623:30+25nnw118973 0.7 100953
02:30+24nnw1293100 3.2 100873
05:30+24nne119225 4.6 100843
08:30+27nw127810 0.1 1009341
11:30+30wnw466298 0.4 10091416
14:30+30wnw576098 0.1 10071247
17:30+29wnw4668100 0.1 10081054
20:30+26nw2481100 0.7 1009159
27 june, sun
sun2723:30+26wnw2482100 1.0 1009146
02:30+25nw3585100 0.7 1008171
05:30+25nw2489100 1.6 1009117
08:30+26nw3584100 1.8 1011490
11:30+28nw4675100 3.5 1011920
14:30+29nw5674100 2.4 1009995
17:30+28nw467967 4.9 1009763
20:30+26nnw259088 2.6 1010209
28 june, mon
mon2823:30+26nw369096 3.8 1010293
02:30+25nw378998 2.1 1008296
05:30+24nw379265 4.9 1008276
08:30+26nw368687 2.9 1010460
11:30+28nw357599 3.9 1010766
14:30+28wnw4674100 0.9 1008744
17:30+27nw4782100 4.9 1008606
20:30+26nw488897 5.8 1009292